User: anonymous   Login
Location: Unspecified
(0.0000°N, 0.0000°E)
Time: 18:56:44
(UTC+00:00)
Language:

PANSAT - Orbit

View from above orbital plane
View from above orbital plane
View from above satellite
View from above satellite

Ground track
Ground track

The orbit data is extracted from the following two-line orbital elements,

1 25520U 98064B   18350.87828432 +.00000508 +00000-0 +98216-5 0  9994
2 25520 028.4585 212.0656 0004996 322.3005 037.7240 15.29019962117874
Epoch (UTC): 16 December 2018 21:04:43
Eccentricity: 0.0004996
inclination: 28.4585°
perigee height: 475 km
apogee height: 482 km
right ascension of ascending node: 212.0656°
argument of perigee: 322.3005°
revolutions per day: 15.29019962
mean anomaly at epoch: 37.7240°
orbit number at epoch: 11787

The dashed part of the orbit path shows where the satellite is in the earth's shadow,  

DLR